{"data":{"norad_id":69227,"intl_designator":"2026-115S","name":"STARLINK-37737","alt_names":[],"object_type":"PAYLOAD","status":"ACTIVE","operator":null,"country":"US","launch_date":"2026-05-26","launch_site_code":"AFWTR","launch_vehicle":null,"mission":null,"orbit_class":"UNKNOWN","rcs_meters":null,"size_class":null,"mass_kg":null,"dimensions":null,"purposes":["comms"],"wikipedia_slug":null,"has_3d_model":false,"image_url":null,"decayed_at":null,"tle_current":{"epoch":"2026-09-20T02:43:42.639744Z","epoch_age_seconds":60389,"freshness":"FRESH","line1":"1 69227U 26115S   26263.11368796  .00018886  00000+0  58565-3 0  9993","line2":"2 69227  97.2838 279.2511 0001241  58.5232 301.6132 15.33456488 19233","mean_motion":15.33456488,"eccentricity":0.0001241,"inclination_deg":97.2838,"raan_deg":279.2511,"arg_perigee_deg":58.5232,"mean_anomaly_deg":301.6132,"bstar":0.00058565,"rev_number":1923,"period_min":93.905501151722,"perigee_km":464.6596980181,"apogee_km":466.35829095393,"semimajor_km":6843.645994486,"source":"CELESTRAK","updated_at":"2026-09-20T09:00:44.105071Z"}}}